Погода в Пуле

Хорватия     44°52′08″N   13°50′58″E
темп.,
°C
ветер,
м/с
пор.,
м/с
влажн.,
%
обл.,
%
осадки,
мм/ч
давл.,
гПа
погр.,
м
6 марта, сб
сб601:00+8всв15187191 0.6 1024733
04:00+7всв182166100 0.0 1025733
07:00+6всв161958100 0.5 1028781
10:00+6всв13155675 0.0 1030746
13:00+7всв10135359 0.0 1030908
16:00+8св1012500 0.0 1029906
19:00+7св911530 0.0 1029717
22:00+7св89550 0.0 1030561
7 марта, вс
вс701:00+6св66520 0.0 1030357
04:00+6св33540 0.0 1028251
07:00+6всв21550 0.0 1027258
10:00+7вюв11570 0.0 1026488
13:00+8ююз23581 0.0 1025637
16:00+8юз235863 0.0 1022620
19:00+8ююз225745 0.0 1021569
22:00+8ююз225674 0.0 1021592
8 марта, пн
пн801:00+8ююв115653 0.0 1020508
04:00+8в22620 0.0 1018452
07:00+8всв33680 0.0 1018431
10:00+8всв44660 0.0 1017471
13:00+9в336311 0.0 1017451
16:00+9всв126063 0.0 1016312
19:00+9ссв226371 0.0 1017274
22:00+9ссв336999 0.0 1018220
9 марта, вт
вт901:00+9всв8106497 0.0 1018538
04:00+9всв9116696 0.0 1017449
07:00+8всв10126479 0.0 1017456
10:00+9всв9116238 0.0 1017500
13:00+10всв795752 0.0 1017713
16:00+10св575649 0.0 1016896
19:00+10всв9116133 0.0 1017696
22:00+9св10126539 0.0 1019627
10 марта, ср
ср1001:00+8св9116255 0.0 1019702
04:00+8св9115911 0.0 1019762
07:00+8св811595 0.0 1020691
10:00+9св811560 0.0 1021708
13:00+11св811520 0.0 1022817
16:00+11ссв46530 0.0 1021621
19:00+10ссз45580 0.0 1022278
22:00+10ссз225737 0.0 1023166